Location: Julian California
(33.0790°N, 116.6010°W)
Time: 02:40:20
(UTC-07:00)

Resurs 01 Rocket - Pass Details

Date: 14 June 2018
Orbit: 635 x 643 km, 98.1° (Epoch: 22 October)

Event Time Altitude Azimuth Distance (km) Brightness Sun altitude
Exits shadow 21:19:22 - 188° (S) 2,257 4.1 -15.0°
Reaches altitude 10° 21:20:00 10° 191° (S) 2,010 3.9 -15.1°
Maximum altitude 21:24:07 40° 261° (W) 941 2.8 -15.8°
Drops below altitude 10° 21:28:16 10° 331° (NNW) 2,025 5.4 -16.4°
Sets 21:30:35 0° 339° (NNW) 2,939 6.2 -16.8°
